SKYSAT-C10

Last updated on Tue Jul 28 2026 00:02:52 GMT+0000 (Coordinated Universal Time)

1 42988U 17068B 26208.31880703 .00009851 00000+0 28953-3 0 9993 2 42988 97.4546 345.5867 0001540 107.4173 252.7238 15.35317913488512
UTC large
Height (km)
Speed (km/s)
/
Latitude / Longitude
Inclination (degrees)
Orbital Period (minutes)
Azimuth
Elevation
Range (km)
Doppler Factor

Next 0 passes for location: London (51.5072 / 0.1276)

No passes found over London.
SKYSAT-C10